Location: Adavinekkalam
(16.6301°N, 80.7229°E)
Time: 14:57:48
(UTC+00:00)

Cosmos 2074 Rocket - Pass Details

Date: 15 May 2026
Orbit: 966 x 985 km, 82.9° (Epoch: 10 June)

Event Time Altitude Azimuth Distance (km) Brightness Sun altitude
Rises 21:54:23 0° 350° (N) 3,669 7.3 -29.1°
Reaches altitude 10° 21:56:56 10° 347° (NNW) 2,718 6.5 -28.6°
Enters shadow 22:02:33 61° 293° (WNW) 1,094 4.0 -27.5°
